星链-1422 (STARLINK-1422 )

导读

STARLINK-1422是美国太空探索技术公司 SpaceX 星链星座中的一颗卫星,于2020年6月4日发射入轨,属于星链低轨互联网星座组网卫星。星链计划旨在为全球提供高覆盖、低延迟的宽带互联网服务,该卫星承担了补充星座网络覆盖、增强空间通信容量的任务,服务全球卫星互联网组网布局。

基本信息
目录编号:
45696
目录名称:
STARLINK-1422
国际标识:
2020-035AR
轨道中心:
EARTH
卫星名称:
星链-1422
卫星全名:
星链-1422 (STARLINK-1422 )
卫星状态:
在轨 (已飞行2290 天)
发射日期:
2020-06-04 UTC
国别 :
美国 (US)
星等 :
--
该卫星已列入 空间交会检测服务 Space Conjunction Data Service (SCDS) ,当前飞行风险评估等级: 无高风险
轨道信息
数据来源 国际轨道数据 AOE轨道数据
星历时间 2026-09-11T09:02:57+0800
11小时前
查看轨道信息
2026-09-09T06:00:00+0800
2天前
查看轨道信息
半长轴 6808.949km 6809.651km
偏心率 0.000577 0.0006022
轨道倾角 53.151° 53.154°
近地点辐角 28.909° 21.971°
升交点赤经 260.441° 270.549°
平近点角 331.224° 20.214°
近地点 426.883km 427.413km
远地点 434.741km 435.615km
周期 93.192分钟 93.207分钟
每日圈数 15.45193 15.44954
详细信息
固有亮度:
5
最大亮度:
2.5
卫星平台:
Starlink V1.0
覆盖范围:
全球
运营商:
太空探索技术公司
运营商所在国:
美国
制造商(研发单位):
太空探索技术公司
制造商所在国:
美国
使用方式:
暂无
卫星简介
星链(Starlink)计划是由太空探索技术公司(SpaceX)提出的一个巨型低轨卫星互联网星座项目,计划在2019年至2024年间在太空搭建由约1.2万颗卫星组成的“星链”网络,其中1584颗将部署在地球上空550千米处的近地轨道,并从2020年开始工作。该卫星仍在工作。
2D轨道图
3D轨道图
轨道高度分析图
轨道倾角分析图
轨道综合分析图
查看轨道综合分析图
与全量物体交会距离演化趋势
与全量物体交会风险概率演化趋势